Terug naar catalogus

COSMOS 1275 DEB

LostPO
NORAD 42216·DEBRIS·🇷🇺 Russia

Gelanceerd Jun 4, 1981 vanaf Plesetsk Cosmodrome

Loading…

Volgende Passages (komende 24 uur)

TLE

VerouderdSource: Space-Track

Epoch: Sep 12, 2024, 19:19 UTC

1 42216U 81053UG  24256.80515275  .00025150  00000-0  12160-1 0  9998
2 42216  82.8817 280.4111 0018836 225.3866 134.5778 14.18271998145203

Volg COSMOS 1275 DEB in realtime met AllMySat

Download on the App Store